Time,TemperatureF,DewpointF,PressureIn,WindDirection,WindDirectionDegrees,WindSpeedMPH,WindSpeedGustMPH,Humidity,HourlyPrecipIn,Conditions,Clouds,dailyrainin,SoftwareType,DateUTC
2013-01-16 01:33:00,16.5,13.1,30.24,WNW,285,0.0,0.0,86,0.00,,---,0.00,VWS V12.07,2013-01-16 07:33:00,
2013-01-16 01:43:00,15.9,12.5,30.24,WNW,285,0.0,0.0,86,0.00,,---,0.00,VWS V12.07,2013-01-16 07:43:00,
2013-01-16 01:53:00,15.8,12.9,30.24,WNW,285,0.0,0.0,88,0.00,,---,0.00,VWS V12.07,2013-01-16 07:53:00,
2013-01-16 02:13:00,15.8,13.1,30.24,West,260,0.0,1.0,89,0.00,,---,0.00,VWS V12.07,2013-01-16 08:13:00,
2013-01-16 02:23:00,16.0,13.3,30.24,West,266,0.0,1.0,89,0.00,,---,0.00,VWS V12.07,2013-01-16 08:23:00,
2013-01-16 02:33:00,15.8,13.1,30.24,West,271,0.0,0.0,89,0.00,,---,0.00,VWS V12.07,2013-01-16 08:33:00,
2013-01-16 02:43:00,15.3,12.6,30.23,West,278,0.0,0.0,89,0.00,,---,0.00,VWS V12.07,2013-01-16 08:43:00,
2013-01-16 02:53:00,15.3,12.9,30.23,West,277,0.0,0.0,90,0.00,,---,0.00,VWS V12.07,2013-01-16 08:53:00,
2013-01-16 03:13:00,14.7,12.3,30.22,SSW,210,0.0,0.0,90,0.00,,---,0.00,VWS V12.07,2013-01-16 09:13:00,
2013-01-16 03:43:00,13.5,11.4,30.21,South,169,0.0,0.0,91,0.00,,---,0.00,VWS V12.07,2013-01-16 09:43:00,
2013-01-16 03:53:00,14.3,12.4,30.21,South,169,0.0,0.0,92,0.00,,---,0.00,VWS V12.07,2013-01-16 09:53:00,
2013-01-16 04:03:00,14.9,13.0,30.21,South,169,0.0,1.0,92,0.00,,---,0.00,VWS V12.07,2013-01-16 10:03:00,
2013-01-16 04:13:00,14.7,12.6,30.20,SSE,159,0.0,1.0,91,0.00,,---,0.00,VWS V12.07,2013-01-16 10:13:00,
2013-01-16 04:23:00,14.2,11.8,30.19,SSE,167,0.0,2.0,90,0.00,,---,0.00,VWS V12.07,2013-01-16 10:23:00,
2013-01-16 04:33:00,14.0,11.6,30.18,SSW,193,0.0,0.0,90,0.00,,---,0.00,VWS V12.07,2013-01-16 10:33:00,
2013-01-16 04:43:00,13.8,11.2,30.18,SSE,161,0.0,3.0,89,0.00,,---,0.00,VWS V12.07,2013-01-16 10:43:00,
2013-01-16 04:53:00,13.5,10.9,30.18,South,173,0.0,3.0,89,0.00,,---,0.00,VWS V12.07,2013-01-16 10:53:00,
2013-01-16 05:03:00,13.5,10.9,30.17,South,174,0.0,0.0,89,0.00,,---,0.00,VWS V12.07,2013-01-16 11:03:00,
2013-01-16 05:13:00,13.5,10.9,30.18,South,181,0.0,0.0,89,0.00,,---,0.00,VWS V12.07,2013-01-16 11:13:00,
2013-01-16 05:23:00,13.5,10.9,30.17,South,177,0.0,0.0,89,0.00,,---,0.00,VWS V12.07,2013-01-16 11:23:00,
2013-01-16 05:53:00,13.1,10.2,30.18,SSW,211,0.0,1.0,88,0.00,,---,0.00,VWS V12.07,2013-01-16 11:53:00,
2013-01-16 06:13:00,13.2,10.3,30.18,SW,226,0.0,0.0,88,0.00,,---,0.00,VWS V12.07,2013-01-16 12:13:00,
2013-01-16 06:23:00,13.0,10.1,30.18,SW,226,0.0,0.0,88,0.00,,---,0.00,VWS V12.07,2013-01-16 12:23:00,
2013-01-16 06:53:00,12.6,9.7,30.18,WSW,241,0.0,0.0,88,0.00,,---,0.00,VWS V12.07,2013-01-16 12:53:00,
2013-01-16 07:13:00,13.1,10.2,30.17,WSW,238,0.0,0.0,88,0.00,,---,0.00,VWS V12.07,2013-01-16 13:13:00,
2013-01-16 07:33:00,13.2,10.3,30.16,SSE,162,0.0,0.0,88,0.00,,---,0.00,VWS V12.07,2013-01-16 13:33:00,
2013-01-16 07:43:00,14.2,11.3,30.15,SSE,163,0.0,0.0,88,0.00,,---,0.00,VWS V12.07,2013-01-16 13:43:00,
2013-01-16 08:33:00,18.3,14.0,30.16,South,191,1.0,3.0,83,0.00,,---,0.00,VWS V12.07,2013-01-16 14:33:00,
2013-01-16 09:03:00,21.8,16.6,30.15,SW,217,2.0,4.0,80,0.00,,---,0.00,VWS V12.07,2013-01-16 15:03:00,
2013-01-16 09:23:00,23.4,17.3,30.15,South,184,0.0,6.0,77,0.00,,---,0.00,VWS V12.07,2013-01-16 15:23:00,
2013-01-16 13:53:00,40.5,22.4,30.05,West,265,15.0,17.0,48,0.02,,---,0.02,VWS V12.07,2013-01-16 19:53:00,
2013-01-16 15:24:00,42.1,22.8,30.08,NNW,340,7.0,18.0,46,0.03,,---,0.05,VWS V12.07,2013-01-16 21:24:00,
2013-01-16 16:25:00,40.4,23.2,30.08,WSW,256,4.0,13.0,50,0.01,,---,0.05,VWS V12.07,2013-01-16 22:25:00,
2013-01-16 17:04:00,39.7,23.5,30.09,West,263,6.0,13.0,52,0.01,,---,0.06,VWS V12.07,2013-01-16 23:04:00,
2013-01-16 17:45:00,38.0,24.1,30.12,WNW,291,3.0,8.0,57,0.00,,---,0.06,VWS V12.07,2013-01-16 23:45:00,
2013-01-16 17:54:00,37.7,24.3,30.13,WNW,290,0.0,8.0,58,0.00,,---,0.06,VWS V12.07,2013-01-16 23:54:00,
2013-01-16 18:25:00,36.6,24.0,30.13,West,269,0.0,5.0,60,0.00,,---,0.06,VWS V12.07,2013-01-17 00:25:00,
2013-01-16 18:44:00,36.1,24.0,30.14,WSW,256,0.0,5.0,61,0.00,,---,0.06,VWS V12.07,2013-01-17 00:44:00,
2013-01-16 19:16:00,35.8,24.1,30.15,WSW,245,3.0,6.0,62,0.00,,---,0.06,VWS V12.07,2013-01-17 01:16:00,
2013-01-16 19:25:00,35.7,24.4,30.15,WNW,295,0.0,6.0,63,0.00,,---,0.06,VWS V12.07,2013-01-17 01:25:00,
2013-01-16 20:48:00,33.0,24.0,30.15,SW,228,0.0,1.0,69,0.00,,---,0.06,VWS V12.07,2013-01-17 02:48:00,
2013-01-16 20:56:00,32.7,24.0,30.16,WSW,242,0.0,2.0,70,0.00,,---,0.06,VWS V12.07,2013-01-17 02:56:00,
2013-01-16 21:16:00,32.8,24.5,30.16,West,266,0.0,3.0,71,0.00,,---,0.06,VWS V12.07,2013-01-17 03:16:00,
2013-01-16 22:06:00,33.7,25.3,30.15,West,276,1.0,3.0,71,0.00,,---,0.06,VWS V12.07,2013-01-17 04:06:00,
2013-01-16 22:15:00,33.9,25.5,30.16,WSW,252,1.0,3.0,71,0.00,,---,0.06,VWS V12.07,2013-01-17 04:15:00,
2013-01-16 22:35:00,34.1,25.4,30.16,West,269,0.0,2.0,70,0.00,,---,0.06,VWS V12.07,2013-01-17 04:35:00,
2013-01-16 22:45:00,33.7,25.3,30.16,WNW,284,0.0,2.0,71,0.00,,---,0.06,VWS V12.07,2013-01-17 04:45:00,
2013-01-16 22:55:00,33.7,25.3,30.16,West,266,0.0,2.0,71,0.00,,---,0.06,VWS V12.07,2013-01-17 04:55:00,
2013-01-16 23:06:00,33.7,25.3,30.17,SW,236,0.0,2.0,71,0.00,,---,0.06,VWS V12.07,2013-01-17 05:06:00,